Time,TemperatureF,DewpointF,PressureIn,WindDirection,WindDirectionDegrees,WindSpeedMPH,WindSpeedGustMPH,Humidity,HourlyPrecipIn,Conditions,Clouds,dailyrainin,SolarRadiationWatts/m^2,SoftwareType,DateUTC
2013-06-25 00:02:00,72.7,66.5,29.48,South,169,11.0,14.0,81,0.00,,,0.00,0,Wunderground v.1.15,2013-06-25 05:02:00,
2013-06-25 00:07:00,74.5,66.4,29.49,SSE,147,14.0,15.0,76,0.00,,,0.00,0,Wunderground v.1.15,2013-06-25 05:07:00,
2013-06-25 00:12:00,76.2,65.7,29.48,SSE,148,16.0,20.0,70,0.00,,,0.00,0,Wunderground v.1.15,2013-06-25 05:12:00,
2013-06-25 00:17:00,78.0,66.2,29.48,SSE,153,16.0,21.0,67,0.00,,,0.00,0,Wunderground v.1.15,2013-06-25 05:17:00,
2013-06-25 00:22:00,78.0,65.7,29.48,SE,136,16.0,19.0,66,0.00,,,0.00,0,Wunderground v.1.15,2013-06-25 05:22:00,
2013-06-25 00:28:00,76.5,66.0,29.48,SSE,154,11.0,19.0,70,0.00,,,0.00,0,Wunderground v.1.15,2013-06-25 05:28:00,
2013-06-25 00:33:00,75.7,66.4,29.49,SE,137,11.0,14.0,73,0.00,,,0.00,0,Wunderground v.1.15,2013-06-25 05:33:00,
2013-06-25 00:38:00,75.6,67.1,29.49,SE,143,9.0,14.0,75,0.00,,,0.00,0,Wunderground v.1.15,2013-06-25 05:38:00,
2013-06-25 00:43:00,75.7,67.2,29.49,SSE,149,10.0,12.0,75,0.00,,,0.00,0,Wunderground v.1.15,2013-06-25 05:43:00,
2013-06-25 00:48:00,75.7,67.6,29.50,SSE,153,10.0,14.0,76,0.00,,,0.00,0,Wunderground v.1.15,2013-06-25 05:48:00,
2013-06-25 00:54:00,75.1,67.8,29.49,SSE,155,10.0,13.0,78,0.00,,,0.00,0,Wunderground v.1.15,2013-06-25 05:54:00,
2013-06-25 00:59:00,74.4,67.8,29.48,SSE,153,12.0,13.0,80,0.00,,,0.00,0,Wunderground v.1.15,2013-06-25 05:59:00,
2013-06-25 01:04:00,73.9,67.7,29.49,SSE,159,10.0,13.0,81,0.00,,,0.00,0,Wunderground v.1.15,2013-06-25 06:04:00,
2013-06-25 01:09:00,73.8,67.6,29.49,SSE,154,11.0,13.0,81,0.00,,,0.00,0,Wunderground v.1.15,2013-06-25 06:09:00,
2013-06-25 01:14:00,73.6,67.4,29.49,SSE,155,10.0,13.0,81,0.00,,,0.00,0,Wunderground v.1.15,2013-06-25 06:14:00,
2013-06-25 01:20:00,73.6,67.0,29.49,SE,137,7.0,10.0,80,0.00,,,0.00,0,Wunderground v.1.15,2013-06-25 06:20:00,
2013-06-25 01:25:00,73.4,66.9,29.49,SE,143,8.0,10.0,80,0.00,,,0.00,0,Wunderground v.1.15,2013-06-25 06:25:00,
2013-06-25 01:30:00,73.6,66.7,29.50,SE,146,10.0,10.0,79,0.00,,,0.00,0,Wunderground v.1.15,2013-06-25 06:30:00,
2013-06-25 01:35:00,74.6,66.1,29.50,SE,126,14.0,14.0,75,0.00,,,0.00,0,Wunderground v.1.15,2013-06-25 06:35:00,
2013-06-25 01:40:00,74.9,65.7,29.50,SSE,153,13.0,13.0,73,0.00,,,0.00,0,Wunderground v.1.15,2013-06-25 06:40:00,
2013-06-25 01:45:00,75.4,64.1,29.50,SE,144,16.0,16.0,68,0.00,,,0.00,0,Wunderground v.1.15,2013-06-25 06:45:00,
2013-06-25 01:50:00,75.8,63.2,29.50,SSE,148,12.0,14.0,65,0.00,,,0.00,0,Wunderground v.1.15,2013-06-25 06:50:00,
2013-06-25 01:55:00,75.9,61.9,29.50,SSE,153,18.0,18.0,62,0.00,,,0.00,0,Wunderground v.1.15,2013-06-25 06:55:00,
2013-06-25 02:00:00,75.8,60.9,29.50,SSE,155,22.0,22.0,60,0.00,,,0.00,0,Wunderground v.1.15,2013-06-25 07:00:00,
2013-06-25 02:05:00,75.6,60.3,29.50,SSE,148,14.0,22.0,59,0.00,,,0.00,0,Wunderground v.1.15,2013-06-25 07:05:00,
2013-06-25 02:10:00,75.6,58.8,29.51,SSE,150,14.0,16.0,56,0.00,,,0.00,0,Wunderground v.1.15,2013-06-25 07:10:00,
2013-06-25 02:15:00,75.8,58.0,29.51,SSE,166,19.0,24.0,54,0.00,,,0.00,0,Wunderground v.1.15,2013-06-25 07:15:00,
2013-06-25 02:20:00,75.6,57.8,29.51,South,184,12.0,15.0,54,0.00,,,0.00,0,Wunderground v.1.15,2013-06-25 07:20:00,
2013-06-25 02:25:00,75.1,57.8,29.51,South,173,14.0,17.0,55,0.00,,,0.00,0,Wunderground v.1.15,2013-06-25 07:25:00,
2013-06-25 02:30:00,75.1,57.8,29.51,SSE,161,14.0,16.0,55,0.00,,,0.00,0,Wunderground v.1.15,2013-06-25 07:30:00,
2013-06-25 02:35:00,75.5,57.2,29.51,SSE,155,16.0,21.0,53,0.00,,,0.00,0,Wunderground v.1.15,2013-06-25 07:35:00,
2013-06-25 02:40:00,75.5,57.7,29.51,SSE,168,13.0,14.0,54,0.00,,,0.00,0,Wunderground v.1.15,2013-06-25 07:40:00,
2013-06-25 02:45:00,75.0,57.7,29.51,SSE,157,12.0,18.0,55,0.00,,,0.00,0,Wunderground v.1.15,2013-06-25 07:45:00,
2013-06-25 02:50:00,74.7,57.5,29.51,SSE,151,15.0,15.0,55,0.00,,,0.00,0,Wunderground v.1.15,2013-06-25 07:50:00,
2013-06-25 02:55:00,74.4,57.2,29.52,SSE,150,12.0,19.0,55,0.00,,,0.00,0,Wunderground v.1.15,2013-06-25 07:55:00,
2013-06-25 03:00:00,73.9,57.7,29.52,SSE,162,14.0,14.0,57,0.00,,,0.00,0,Wunderground v.1.15,2013-06-25 08:00:00,
2013-06-25 03:05:00,73.8,58.1,29.52,SE,139,13.0,18.0,58,0.00,,,0.00,0,Wunderground v.1.15,2013-06-25 08:05:00,
2013-06-25 03:10:00,73.3,59.0,29.52,SSE,152,11.0,13.0,61,0.00,,,0.00,0,Wunderground v.1.15,2013-06-25 08:10:00,
2013-06-25 03:15:00,73.1,59.8,29.51,SSE,147,8.0,14.0,63,0.00,,,0.00,0,Wunderground v.1.15,2013-06-25 08:15:00,
2013-06-25 03:20:00,72.4,60.4,29.51,SSE,159,7.0,9.0,66,0.00,,,0.00,0,Wunderground v.1.15,2013-06-25 08:20:00,
2013-06-25 03:25:00,72.0,60.9,29.51,SSE,167,7.0,10.0,68,0.00,,,0.00,0,Wunderground v.1.15,2013-06-25 08:25:00,
2013-06-25 03:30:00,72.2,61.5,29.50,SSE,165,11.0,11.0,69,0.00,,,0.00,0,Wunderground v.1.15,2013-06-25 08:30:00,
2013-06-25 03:35:00,72.6,61.4,29.49,SSE,159,11.0,12.0,68,0.00,,,0.00,0,Wunderground v.1.15,2013-06-25 08:35:00,
2013-06-25 03:40:00,72.4,61.7,29.49,SSE,157,7.0,11.0,69,0.00,,,0.00,0,Wunderground v.1.15,2013-06-25 08:40:00,
2013-06-25 03:45:00,71.9,62.0,29.49,SSE,159,8.0,12.0,71,0.00,,,0.00,0,Wunderground v.1.15,2013-06-25 08:45:00,
2013-06-25 03:50:00,72.0,62.1,29.50,SE,132,7.0,11.0,71,0.00,,,0.00,0,Wunderground v.1.15,2013-06-25 08:50:00,
2013-06-25 03:55:00,71.5,62.0,29.50,SE,138,7.0,11.0,72,0.00,,,0.00,0,Wunderground v.1.15,2013-06-25 08:55:00,
2013-06-25 04:00:00,71.2,61.7,29.50,SE,144,7.0,9.0,72,0.00,,,0.00,0,Wunderground v.1.15,2013-06-25 09:00:00,
2013-06-25 04:05:00,70.9,61.8,29.50,SE,146,6.0,10.0,73,0.00,,,0.00,0,Wunderground v.1.15,2013-06-25 09:05:00,
2013-06-25 04:10:00,71.2,61.3,29.50,SE,132,8.0,12.0,71,0.00,,,0.00,0,Wunderground v.1.15,2013-06-25 09:10:00,
2013-06-25 04:15:00,71.5,61.6,29.50,ESE,109,8.0,12.0,71,0.00,,,0.00,0,Wunderground v.1.15,2013-06-25 09:15:00,
2013-06-25 04:20:00,71.4,61.1,29.50,ESE,114,10.0,12.0,70,0.00,,,0.00,0,Wunderground v.1.15,2013-06-25 09:20:00,
2013-06-25 04:25:00,71.4,61.5,29.50,ESE,123,7.0,12.0,71,0.00,,,0.00,0,Wunderground v.1.15,2013-06-25 09:25:00,
2013-06-25 04:30:00,71.5,61.6,29.50,ESE,105,10.0,14.0,71,0.00,,,0.00,0,Wunderground v.1.15,2013-06-25 09:30:00,
2013-06-25 04:35:00,71.3,61.0,29.50,ESE,103,11.0,18.0,70,0.00,,,0.00,0,Wunderground v.1.15,2013-06-25 09:35:00,
2013-06-25 04:40:00,71.5,60.8,29.50,ESE,103,12.0,16.0,69,0.00,,,0.00,0,Wunderground v.1.15,2013-06-25 09:40:00,
2013-06-25 04:45:00,71.4,61.1,29.50,East,89,10.0,19.0,70,0.00,,,0.00,0,Wunderground v.1.15,2013-06-25 09:45:00,
2013-06-25 04:50:00,71.0,60.7,29.50,ENE,75,15.0,16.0,70,0.00,,,0.00,0,Wunderground v.1.15,2013-06-25 09:50:00,
2013-06-25 04:55:00,70.9,60.2,29.50,ESE,104,13.0,19.0,69,0.00,,,0.00,0,Wunderground v.1.15,2013-06-25 09:55:00,
2013-06-25 05:00:00,71.0,60.3,29.50,East,91,18.0,20.0,69,0.00,,,0.00,0,Wunderground v.1.15,2013-06-25 10:00:00,
2013-06-25 05:05:00,71.3,59.8,29.50,East,99,14.0,22.0,67,0.00,,,0.00,0,Wunderground v.1.15,2013-06-25 10:05:00,
2013-06-25 05:10:00,71.8,59.8,29.50,ESE,105,13.0,18.0,66,0.00,,,0.00,0,Wunderground v.1.15,2013-06-25 10:10:00,
2013-06-25 05:15:00,72.3,59.9,29.50,ESE,111,14.0,23.0,65,0.00,,,0.00,0,Wunderground v.1.15,2013-06-25 10:15:00,
2013-06-25 05:20:00,72.9,60.4,29.50,SE,126,13.0,16.0,65,0.00,,,0.00,0,Wunderground v.1.15,2013-06-25 10:20:00,
2013-06-25 05:25:00,72.9,60.9,29.50,East,100,11.0,22.0,66,0.00,,,0.00,0,Wunderground v.1.15,2013-06-25 10:25:00,
2013-06-25 05:30:00,72.8,61.2,29.50,SE,135,10.0,18.0,67,0.00,,,0.00,0,Wunderground v.1.15,2013-06-25 10:30:00,
2013-06-25 05:35:00,72.8,61.6,29.50,East,99,15.0,19.0,68,0.00,,,0.00,0,Wunderground v.1.15,2013-06-25 10:35:00,
2013-06-25 05:40:00,72.7,61.9,29.50,SE,131,13.0,18.0,69,0.00,,,0.00,0,Wunderground v.1.15,2013-06-25 10:40:00,
2013-06-25 05:45:00,72.4,62.1,29.50,SE,138,17.0,18.0,70,0.00,,,0.00,0,Wunderground v.1.15,2013-06-25 10:45:00,
2013-06-25 05:50:00,72.2,62.7,29.50,ESE,117,14.0,19.0,72,0.00,,,0.00,0,Wunderground v.1.15,2013-06-25 10:50:00,
2013-06-25 05:55:00,72.0,62.9,29.50,ESE,102,16.0,19.0,73,0.00,,,0.00,0,Wunderground v.1.15,2013-06-25 10:55:00,
2013-06-25 06:00:00,71.9,63.2,29.49,SE,130,11.0,13.0,74,0.00,,,0.00,0,Wunderground v.1.15,2013-06-25 11:00:00,
2013-06-25 06:05:00,71.9,63.2,29.49,SE,132,12.0,16.0,74,0.00,,,0.00,0,Wunderground v.1.15,2013-06-25 11:05:00,
2013-06-25 06:10:00,72.0,63.3,29.49,ESE,118,13.0,13.0,74,0.00,,,0.00,0,Wunderground v.1.15,2013-06-25 11:10:00,
2013-06-25 06:15:00,71.8,63.4,29.49,SE,134,9.0,15.0,75,0.00,,,0.00,7,Wunderground v.1.15,2013-06-25 11:15:00,
2013-06-25 06:20:00,71.7,63.7,29.49,SE,134,11.0,15.0,76,0.00,,,0.00,14,Wunderground v.1.15,2013-06-25 11:20:00,
2013-06-25 06:25:00,71.6,64.0,29.50,SSE,148,11.0,15.0,77,0.00,,,0.00,18,Wunderground v.1.15,2013-06-25 11:25:00,
2013-06-25 06:30:00,71.5,64.3,29.50,SE,144,9.0,14.0,78,0.00,,,0.00,19,Wunderground v.1.15,2013-06-25 11:30:00,
2013-06-25 06:35:00,71.5,64.3,29.50,ESE,118,8.0,14.0,78,0.00,,,0.00,28,Wunderground v.1.15,2013-06-25 11:35:00,
2013-06-25 06:40:00,71.6,64.7,29.50,SE,133,16.0,16.0,79,0.00,,,0.00,37,Wunderground v.1.15,2013-06-25 11:40:00,
2013-06-25 06:45:00,71.9,64.7,29.50,SE,126,12.0,16.0,78,0.00,,,0.00,42,Wunderground v.1.15,2013-06-25 11:45:00,
2013-06-25 06:50:00,72.1,65.2,29.50,SE,138,16.0,18.0,79,0.00,,,0.00,49,Wunderground v.1.15,2013-06-25 11:50:00,
2013-06-25 06:55:00,72.3,65.1,29.50,SE,140,16.0,19.0,78,0.00,,,0.00,67,Wunderground v.1.15,2013-06-25 11:55:00,
2013-06-25 07:00:00,72.5,65.2,29.50,SE,137,11.0,14.0,78,0.00,,,0.00,76,Wunderground v.1.15,2013-06-25 12:00:00,
2013-06-25 07:05:00,72.5,65.6,29.50,SE,144,15.0,18.0,79,0.00,,,0.00,90,Wunderground v.1.15,2013-06-25 12:05:00,
2013-06-25 07:10:00,72.6,65.7,29.50,SSE,155,18.0,18.0,79,0.00,,,0.00,100,Wunderground v.1.15,2013-06-25 12:10:00,
2013-06-25 07:15:00,72.8,65.9,29.50,SE,146,15.0,19.0,79,0.00,,,0.00,114,Wunderground v.1.15,2013-06-25 12:15:00,
2013-06-25 07:20:00,73.1,66.2,29.49,SE,143,14.0,17.0,79,0.00,,,0.00,134,Wunderground v.1.15,2013-06-25 12:20:00,
2013-06-25 07:25:00,73.4,66.1,29.49,SSE,150,14.0,18.0,78,0.00,,,0.00,151,Wunderground v.1.15,2013-06-25 12:25:00,
2013-06-25 07:30:00,73.8,66.1,29.49,SSE,150,15.0,16.0,77,0.00,,,0.00,179,Wunderground v.1.15,2013-06-25 12:30:00,
2013-06-25 07:36:00,74.2,66.1,29.49,SSE,159,15.0,22.0,76,0.00,,,0.00,211,Wunderground v.1.15,2013-06-25 12:36:00,
2013-06-25 07:41:00,74.4,66.0,29.49,SSE,158,12.0,15.0,75,0.00,,,0.00,241,Wunderground v.1.15,2013-06-25 12:41:00,
2013-06-25 07:47:00,74.7,66.2,29.49,SSE,160,11.0,19.0,75,0.00,,,0.00,255,Wunderground v.1.15,2013-06-25 12:47:00,
2013-06-25 07:52:00,74.8,66.3,29.49,SSE,156,14.0,16.0,75,0.00,,,0.00,285,Wunderground v.1.15,2013-06-25 12:52:00,
2013-06-25 07:57:00,75.1,66.6,29.49,SSE,151,15.0,18.0,75,0.00,,,0.00,304,Wunderground v.1.15,2013-06-25 12:57:00,
2013-06-25 08:02:00,75.3,67.2,29.48,SSE,163,14.0,19.0,76,0.00,,,0.00,302,Wunderground v.1.15,2013-06-25 13:02:00,
2013-06-25 08:07:00,75.4,66.9,29.48,SSE,156,16.0,19.0,75,0.00,,,0.00,285,Wunderground v.1.15,2013-06-25 13:07:00,
2013-06-25 08:12:00,75.5,66.6,29.48,SSE,161,15.0,20.0,74,0.00,,,0.00,287,Wunderground v.1.15,2013-06-25 13:12:00,
2013-06-25 08:17:00,75.5,66.6,29.49,SSE,164,15.0,24.0,74,0.00,,,0.00,313,Wunderground v.1.15,2013-06-25 13:17:00,
2013-06-25 08:22:00,75.6,66.7,29.49,SSE,157,16.0,19.0,74,0.00,,,0.00,323,Wunderground v.1.15,2013-06-25 13:22:00,
2013-06-25 08:27:00,75.6,66.7,29.49,SSE,165,16.0,23.0,74,0.00,,,0.00,311,Wunderground v.1.15,2013-06-25 13:27:00,
2013-06-25 08:32:00,75.7,66.8,29.49,SSE,163,18.0,23.0,74,0.00,,,0.00,357,Wunderground v.1.15,2013-06-25 13:32:00,
2013-06-25 08:37:00,75.8,66.9,29.48,SSE,152,16.0,23.0,74,0.00,,,0.00,308,Wunderground v.1.15,2013-06-25 13:37:00,
2013-06-25 08:42:00,76.0,67.1,29.48,SSE,157,19.0,25.0,74,0.00,,,0.00,330,Wunderground v.1.15,2013-06-25 13:42:00,
2013-06-25 08:47:00,75.9,66.2,29.49,SSE,164,12.0,25.0,72,0.00,,,0.00,343,Wunderground v.1.15,2013-06-25 13:47:00,
2013-06-25 08:52:00,76.0,67.1,29.49,SSE,156,19.0,22.0,74,0.00,,,0.00,385,Wunderground v.1.15,2013-06-25 13:52:00,
2013-06-25 08:57:00,76.1,66.4,29.48,South,173,21.0,30.0,72,0.00,,,0.00,309,Wunderground v.1.15,2013-06-25 13:57:00,
2013-06-25 09:02:00,76.2,66.5,29.48,South,170,14.0,22.0,72,0.00,,,0.00,325,Wunderground v.1.15,2013-06-25 14:02:00,
2013-06-25 09:07:00,76.4,66.3,29.48,SSE,166,17.0,24.0,71,0.00,,,0.00,497,Wunderground v.1.15,2013-06-25 14:07:00,
2013-06-25 09:12:00,76.8,65.9,29.48,South,172,15.0,28.0,69,0.00,,,0.00,288,Wunderground v.1.15,2013-06-25 14:12:00,
2013-06-25 09:17:00,76.5,65.1,29.49,South,185,15.0,28.0,68,0.00,,,0.00,378,Wunderground v.1.15,2013-06-25 14:17:00,
2013-06-25 09:22:00,77.0,66.0,29.49,South,176,19.0,20.0,69,0.00,,,0.00,626,Wunderground v.1.15,2013-06-25 14:22:00,
2013-06-25 09:27:00,77.7,65.9,29.49,South,182,31.0,34.0,67,0.00,,,0.00,323,Wunderground v.1.15,2013-06-25 14:27:00,
2013-06-25 09:32:00,77.4,65.6,29.49,South,177,12.0,26.0,67,0.00,,,0.00,408,Wunderground v.1.15,2013-06-25 14:32:00,
2013-06-25 09:37:00,77.9,66.5,29.49,SSE,153,19.0,27.0,68,0.00,,,0.00,666,Wunderground v.1.15,2013-06-25 14:37:00,
2013-06-25 09:42:00,78.4,66.1,29.49,South,178,22.0,30.0,66,0.00,,,0.00,689,Wunderground v.1.15,2013-06-25 14:42:00,
2013-06-25 09:47:00,78.5,66.2,29.48,South,186,18.0,30.0,66,0.00,,,0.00,341,Wunderground v.1.15,2013-06-25 14:47:00,
2013-06-25 09:52:00,78.0,65.3,29.48,South,173,20.0,36.0,65,0.00,,,0.00,543,Wunderground v.1.15,2013-06-25 14:52:00,
2013-06-25 09:57:00,78.3,65.6,29.48,South,178,18.0,36.0,65,0.00,,,0.00,606,Wunderground v.1.15,2013-06-25 14:57:00,
2013-06-25 10:02:00,78.7,66.4,29.48,SSE,154,33.0,33.0,66,0.00,,,0.00,772,Wunderground v.1.15,2013-06-25 15:02:00,
2013-06-25 10:07:00,78.4,66.1,29.48,SSE,163,16.0,37.0,66,0.00,,,0.00,214,Wunderground v.1.15,2013-06-25 15:07:00,
2013-06-25 10:12:00,78.2,66.3,29.48,South,180,15.0,24.0,67,0.00,,,0.00,585,Wunderground v.1.15,2013-06-25 15:12:00,
2013-06-25 10:17:00,77.7,65.9,29.48,South,173,22.0,31.0,67,0.00,,,0.00,452,Wunderground v.1.15,2013-06-25 15:17:00,
2013-06-25 10:22:00,78.0,66.6,29.49,South,184,21.0,32.0,68,0.00,,,0.00,708,Wunderground v.1.15,2013-06-25 15:22:00,
2013-06-25 10:27:00,79.4,67.9,29.49,South,173,15.0,32.0,68,0.00,,,0.00,724,Wunderground v.1.15,2013-06-25 15:27:00,
2013-06-25 10:32:00,79.9,67.1,29.50,South,187,28.0,33.0,65,0.00,,,0.00,780,Wunderground v.1.15,2013-06-25 15:32:00,
2013-06-25 10:37:00,80.2,67.4,29.50,South,176,24.0,33.0,65,0.00,,,0.00,775,Wunderground v.1.15,2013-06-25 15:37:00,
2013-06-25 10:42:00,79.1,66.8,29.50,South,171,17.0,27.0,66,0.00,,,0.00,455,Wunderground v.1.15,2013-06-25 15:42:00,
2013-06-25 10:47:00,79.3,67.8,29.50,South,177,19.0,27.0,68,0.00,,,0.00,577,Wunderground v.1.15,2013-06-25 15:47:00,
2013-06-25 10:52:00,80.0,67.6,29.50,SE,146,20.0,25.0,66,0.00,,,0.00,812,Wunderground v.1.15,2013-06-25 15:52:00,
2013-06-25 10:57:00,80.5,67.6,29.50,SSE,168,25.0,27.0,65,0.00,,,0.00,879,Wunderground v.1.15,2013-06-25 15:57:00,
2013-06-25 11:02:00,80.6,67.7,29.50,South,180,14.0,22.0,65,0.00,,,0.00,352,Wunderground v.1.15,2013-06-25 16:02:00,
2013-06-25 11:07:00,79.5,67.6,29.50,South,171,18.0,26.0,67,0.00,,,0.00,378,Wunderground v.1.15,2013-06-25 16:07:00,
2013-06-25 11:12:00,79.7,67.8,29.49,South,176,18.0,25.0,67,0.00,,,0.00,698,Wunderground v.1.15,2013-06-25 16:12:00,
2013-06-25 11:17:00,79.6,67.2,29.49,South,182,20.0,28.0,66,0.00,,,0.00,457,Wunderground v.1.15,2013-06-25 16:17:00,
2013-06-25 11:22:00,80.0,68.1,29.49,SSE,150,11.0,25.0,67,0.00,,,0.00,693,Wunderground v.1.15,2013-06-25 16:22:00,
2013-06-25 11:27:00,80.1,68.2,29.49,South,173,14.0,25.0,67,0.00,,,0.00,424,Wunderground v.1.15,2013-06-25 16:27:00,
2013-06-25 11:32:00,79.8,67.9,29.49,South,189,16.0,20.0,67,0.00,,,0.00,294,Wunderground v.1.15,2013-06-25 16:32:00,
2013-06-25 11:37:00,81.1,69.5,29.49,South,175,12.0,22.0,68,0.00,,,0.00,1000,Wunderground v.1.15,2013-06-25 16:37:00,
2013-06-25 11:42:00,81.5,69.0,29.49,South,178,16.0,24.0,66,0.00,,,0.00,420,Wunderground v.1.15,2013-06-25 16:42:00,
2013-06-25 11:47:00,80.5,68.5,29.49,SSW,200,17.0,27.0,67,0.00,,,0.00,501,Wunderground v.1.15,2013-06-25 16:47:00,
2013-06-25 11:52:00,80.3,68.3,29.48,South,175,14.0,22.0,67,0.00,,,0.00,489,Wunderground v.1.15,2013-06-25 16:52:00,
2013-06-25 11:57:00,81.2,68.8,29.48,SSE,168,13.0,22.0,66,0.00,,,0.00,499,Wunderground v.1.15,2013-06-25 16:57:00,
2013-06-25 12:02:00,80.8,68.8,29.49,South,172,13.0,20.0,67,0.00,,,0.00,520,Wunderground v.1.15,2013-06-25 17:02:00,
2013-06-25 12:07:00,80.5,68.5,29.49,South,187,12.0,21.0,67,0.00,,,0.00,406,Wunderground v.1.15,2013-06-25 17:07:00,
2013-06-25 12:12:00,80.3,68.3,29.48,South,176,14.0,23.0,67,0.00,,,0.00,534,Wunderground v.1.15,2013-06-25 17:12:00,
2013-06-25 12:17:00,80.5,69.0,29.48,SSW,198,12.0,23.0,68,0.00,,,0.00,598,Wunderground v.1.15,2013-06-25 17:17:00,
2013-06-25 12:22:00,81.0,69.4,29.48,SSE,163,11.0,17.0,68,0.00,,,0.00,461,Wunderground v.1.15,2013-06-25 17:22:00,
2013-06-25 12:27:00,80.9,69.3,29.48,SSE,162,10.0,18.0,68,0.00,,,0.00,476,Wunderground v.1.15,2013-06-25 17:27:00,
2013-06-25 12:32:00,80.9,69.3,29.48,South,184,12.0,15.0,68,0.00,,,0.00,443,Wunderground v.1.15,2013-06-25 17:32:00,
2013-06-25 12:36:00,81.0,69.0,29.47,South,175,11.0,21.0,67,0.00,,,0.00,459,Wunderground v.1.15,2013-06-25 17:36:00,
2013-06-25 12:41:00,81.3,69.3,29.47,SSE,160,11.0,15.0,67,0.00,,,0.00,1099,Wunderground v.1.15,2013-06-25 17:41:00,
2013-06-25 12:46:00,81.9,69.4,29.47,SSE,148,16.0,19.0,66,0.00,,,0.00,438,Wunderground v.1.15,2013-06-25 17:46:00,
2013-06-25 12:51:00,82.0,69.5,29.47,South,178,10.0,15.0,66,0.00,,,0.00,410,Wunderground v.1.15,2013-06-25 17:51:00,
2013-06-25 12:56:00,82.2,70.6,29.47,South,181,11.0,18.0,68,0.00,,,0.00,1148,Wunderground v.1.15,2013-06-25 17:56:00,
2013-06-25 13:01:00,82.2,69.3,29.47,SSE,159,17.0,18.0,65,0.00,,,0.00,524,Wunderground v.1.15,2013-06-25 18:01:00,
2013-06-25 13:06:00,81.5,69.0,29.47,SSW,213,16.0,21.0,66,0.00,,,0.00,454,Wunderground v.1.15,2013-06-25 18:06:00,
2013-06-25 13:11:00,82.1,70.5,29.47,South,186,14.0,17.0,68,0.00,,,0.00,499,Wunderground v.1.15,2013-06-25 18:11:00,
2013-06-25 13:16:00,82.0,70.0,29.47,SSW,194,12.0,18.0,67,0.00,,,0.00,367,Wunderground v.1.15,2013-06-25 18:16:00,
2013-06-25 13:21:00,81.3,69.7,29.46,South,180,14.0,15.0,68,0.00,,,0.00,561,Wunderground v.1.15,2013-06-25 18:21:00,
2013-06-25 13:26:00,81.4,68.9,29.46,SSW,199,7.0,15.0,66,0.00,,,0.00,664,Wunderground v.1.15,2013-06-25 18:26:00,
2013-06-25 13:31:00,81.9,70.3,29.46,SSW,194,7.0,14.0,68,0.00,,,0.00,610,Wunderground v.1.15,2013-06-25 18:31:00,
2013-06-25 13:36:00,83.0,70.5,29.45,SSW,203,7.0,15.0,66,0.00,,,0.00,1222,Wunderground v.1.15,2013-06-25 18:36:00,
2013-06-25 13:41:00,83.7,70.7,29.45,South,170,11.0,13.0,65,0.00,,,0.00,1311,Wunderground v.1.15,2013-06-25 18:41:00,
2013-06-25 13:46:00,83.6,70.6,29.45,South,185,9.0,15.0,65,0.00,,,0.00,717,Wunderground v.1.15,2013-06-25 18:46:00,
2013-06-25 13:51:00,83.0,70.0,29.45,SSW,200,7.0,17.0,65,0.00,,,0.00,420,Wunderground v.1.15,2013-06-25 18:51:00,
2013-06-25 13:56:00,82.2,69.7,29.45,SSW,199,8.0,17.0,66,0.00,,,0.00,691,Wunderground v.1.15,2013-06-25 18:56:00,
2013-06-25 14:01:00,82.5,70.9,29.45,South,169,12.0,13.0,68,0.00,,,0.00,383,Wunderground v.1.15,2013-06-25 19:01:00,
2013-06-25 14:06:00,82.8,70.3,29.45,SSW,194,8.0,16.0,66,0.00,,,0.00,543,Wunderground v.1.15,2013-06-25 19:06:00,
2013-06-25 14:11:00,83.0,70.5,29.45,SSW,204,5.0,10.0,66,0.00,,,0.00,561,Wunderground v.1.15,2013-06-25 19:11:00,
2013-06-25 14:16:00,82.6,69.6,29.45,SSW,205,9.0,11.0,65,0.00,,,0.00,577,Wunderground v.1.15,2013-06-25 19:16:00,
2013-06-25 14:21:00,82.7,70.2,29.45,SSW,197,9.0,12.0,66,0.00,,,0.00,564,Wunderground v.1.15,2013-06-25 19:21:00,
2013-06-25 14:26:00,83.0,69.6,29.45,South,178,10.0,17.0,64,0.00,,,0.00,526,Wunderground v.1.15,2013-06-25 19:26:00,
2013-06-25 14:31:00,82.9,70.4,29.46,SSW,203,7.0,12.0,66,0.00,,,0.00,490,Wunderground v.1.15,2013-06-25 19:31:00,
2013-06-25 14:36:00,83.4,69.9,29.46,South,186,13.0,16.0,64,0.00,,,0.00,773,Wunderground v.1.15,2013-06-25 19:36:00,
2013-06-25 14:41:00,83.1,70.1,29.46,South,177,13.0,14.0,65,0.00,,,0.00,1172,Wunderground v.1.15,2013-06-25 19:41:00,
2013-06-25 14:46:00,83.6,71.0,29.46,SSW,203,11.0,14.0,66,0.00,,,0.00,686,Wunderground v.1.15,2013-06-25 19:46:00,
2013-06-25 14:51:00,83.2,70.2,29.46,South,184,8.0,10.0,65,0.00,,,0.00,541,Wunderground v.1.15,2013-06-25 19:51:00,
2013-06-25 14:56:00,83.3,70.3,29.46,South,182,10.0,10.0,65,0.00,,,0.00,476,Wunderground v.1.15,2013-06-25 19:56:00,
2013-06-25 15:01:00,84.2,71.6,29.45,South,188,9.0,11.0,66,0.00,,,0.00,814,Wunderground v.1.15,2013-06-25 20:01:00,
2013-06-25 15:06:00,84.0,71.0,29.46,SSW,195,11.0,12.0,65,0.00,,,0.00,448,Wunderground v.1.15,2013-06-25 20:06:00,
2013-06-25 15:11:00,83.5,70.9,29.46,SSE,165,10.0,12.0,66,0.00,,,0.00,439,Wunderground v.1.15,2013-06-25 20:11:00,
2013-06-25 15:16:00,83.4,70.4,29.45,South,172,9.0,17.0,65,0.00,,,0.00,462,Wunderground v.1.15,2013-06-25 20:16:00,
2013-06-25 15:21:00,83.5,70.5,29.45,SSW,213,6.0,12.0,65,0.00,,,0.00,587,Wunderground v.1.15,2013-06-25 20:21:00,
2013-06-25 15:26:00,83.3,70.3,29.46,South,182,9.0,12.0,65,0.00,,,0.00,385,Wunderground v.1.15,2013-06-25 20:26:00,
2013-06-25 15:31:00,83.1,70.1,29.46,South,169,10.0,12.0,65,0.00,,,0.00,406,Wunderground v.1.15,2013-06-25 20:31:00,
2013-06-25 15:36:00,83.0,70.0,29.46,SSW,200,8.0,15.0,65,0.00,,,0.00,418,Wunderground v.1.15,2013-06-25 20:36:00,
2013-06-25 15:41:00,83.2,70.2,29.46,SSW,213,7.0,9.0,65,0.00,,,0.00,446,Wunderground v.1.15,2013-06-25 20:41:00,
2013-06-25 15:46:00,83.2,69.8,29.46,SSW,193,10.0,12.0,64,0.00,,,0.00,554,Wunderground v.1.15,2013-06-25 20:46:00,
2013-06-25 15:51:00,83.6,71.0,29.46,South,182,7.0,10.0,66,0.00,,,0.00,587,Wunderground v.1.15,2013-06-25 20:51:00,
2013-06-25 15:56:00,83.9,70.9,29.45,South,185,10.0,16.0,65,0.00,,,0.00,833,Wunderground v.1.15,2013-06-25 20:56:00,
2013-06-25 16:01:00,84.1,70.1,29.45,SSE,163,8.0,12.0,63,0.00,,,0.00,821,Wunderground v.1.15,2013-06-25 21:01:00,
2013-06-25 16:06:00,84.4,70.4,29.45,SSW,196,9.0,13.0,63,0.00,,,0.00,842,Wunderground v.1.15,2013-06-25 21:06:00,
2013-06-25 16:11:00,84.6,70.1,29.45,South,171,7.0,13.0,62,0.00,,,0.00,803,Wunderground v.1.15,2013-06-25 21:11:00,
2013-06-25 16:16:00,84.3,70.3,29.45,South,188,7.0,13.0,63,0.00,,,0.00,796,Wunderground v.1.15,2013-06-25 21:16:00,
2013-06-25 16:21:00,84.1,70.6,29.45,South,177,8.0,8.0,64,0.00,,,0.00,274,Wunderground v.1.15,2013-06-25 21:21:00,
2013-06-25 16:26:00,83.9,70.0,29.45,South,177,7.0,11.0,63,0.00,,,0.00,812,Wunderground v.1.15,2013-06-25 21:26:00,
2013-06-25 16:31:00,84.4,70.4,29.45,South,179,9.0,10.0,63,0.00,,,0.00,837,Wunderground v.1.15,2013-06-25 21:31:00,
2013-06-25 16:36:00,84.3,71.2,29.45,South,180,6.0,10.0,65,0.00,,,0.00,865,Wunderground v.1.15,2013-06-25 21:36:00,
2013-06-25 16:41:00,84.2,69.8,29.45,SSW,198,9.0,14.0,62,0.00,,,0.00,376,Wunderground v.1.15,2013-06-25 21:41:00,
2013-06-25 16:46:00,84.5,70.5,29.45,SSW,198,10.0,14.0,63,0.00,,,0.00,835,Wunderground v.1.15,2013-06-25 21:46:00,
2013-06-25 16:51:00,84.7,70.7,29.45,SSW,205,10.0,13.0,63,0.00,,,0.00,729,Wunderground v.1.15,2013-06-25 21:51:00,
2013-06-25 16:56:00,84.8,70.8,29.44,SSW,200,7.0,13.0,63,0.00,,,0.00,740,Wunderground v.1.15,2013-06-25 21:56:00,
2013-06-25 17:01:00,84.3,70.8,29.44,SSW,196,7.0,9.0,64,0.00,,,0.00,747,Wunderground v.1.15,2013-06-25 22:01:00,
2013-06-25 17:06:00,84.8,71.3,29.44,SSW,194,7.0,11.0,64,0.00,,,0.00,696,Wunderground v.1.15,2013-06-25 22:06:00,
2013-06-25 17:11:00,85.0,70.5,29.44,South,186,9.0,13.0,62,0.00,,,0.00,638,Wunderground v.1.15,2013-06-25 22:11:00,
2013-06-25 17:16:00,84.5,70.0,29.44,SSE,166,8.0,13.0,62,0.00,,,0.00,668,Wunderground v.1.15,2013-06-25 22:16:00,
2013-06-25 17:21:00,84.5,70.0,29.44,South,180,8.0,12.0,62,0.00,,,0.00,668,Wunderground v.1.15,2013-06-25 22:21:00,
2013-06-25 17:26:00,84.3,71.2,29.45,South,175,6.0,12.0,65,0.00,,,0.00,355,Wunderground v.1.15,2013-06-25 22:26:00,
2013-06-25 17:31:00,84.4,70.0,29.44,South,190,9.0,10.0,62,0.00,,,0.00,591,Wunderground v.1.15,2013-06-25 22:31:00,
2013-06-25 17:36:00,84.6,71.1,29.44,SSE,166,7.0,11.0,64,0.00,,,0.00,489,Wunderground v.1.15,2013-06-25 22:36:00,
2013-06-25 17:41:00,84.5,70.0,29.44,SW,215,5.0,11.0,62,0.00,,,0.00,346,Wunderground v.1.15,2013-06-25 22:41:00,
2013-06-25 17:46:00,84.6,70.1,29.44,SSW,192,7.0,11.0,62,0.00,,,0.00,287,Wunderground v.1.15,2013-06-25 22:46:00,
2013-06-25 17:51:00,84.4,71.3,29.44,SSW,195,7.0,8.0,65,0.00,,,0.00,649,Wunderground v.1.15,2013-06-25 22:51:00,
2013-06-25 17:56:00,84.4,70.9,29.44,SSW,197,6.0,8.0,64,0.00,,,0.00,504,Wunderground v.1.15,2013-06-25 22:56:00,
2013-06-25 18:01:00,84.4,70.4,29.45,SSW,193,5.0,6.0,63,0.00,,,0.00,334,Wunderground v.1.15,2013-06-25 23:01:00,
2013-06-25 18:06:00,84.4,70.4,29.45,South,170,5.0,7.0,63,0.00,,,0.00,260,Wunderground v.1.15,2013-06-25 23:06:00,
2013-06-25 18:11:00,84.3,70.8,29.45,South,170,3.0,7.0,64,0.00,,,0.00,287,Wunderground v.1.15,2013-06-25 23:11:00,
2013-06-25 18:16:00,84.3,70.8,29.45,SSW,210,7.0,7.0,64,0.00,,,0.00,313,Wunderground v.1.15,2013-06-25 23:16:00,
2013-06-25 18:21:00,84.4,71.3,29.45,South,177,7.0,9.0,65,0.00,,,0.00,309,Wunderground v.1.15,2013-06-25 23:21:00,
2013-06-25 18:26:00,84.5,71.0,29.45,SSE,165,5.0,9.0,64,0.00,,,0.00,464,Wunderground v.1.15,2013-06-25 23:26:00,
2013-06-25 18:31:00,84.6,70.1,29.45,SSE,159,6.0,9.0,62,0.00,,,0.00,445,Wunderground v.1.15,2013-06-25 23:31:00,
2013-06-25 18:36:00,84.8,70.3,29.44,SSW,195,8.0,10.0,62,0.00,,,0.00,401,Wunderground v.1.15,2013-06-25 23:36:00,
2013-06-25 18:41:00,84.7,70.2,29.45,SSE,163,5.0,7.0,62,0.00,,,0.00,385,Wunderground v.1.15,2013-06-25 23:41:00,
2013-06-25 18:46:00,84.9,71.8,29.44,SE,136,5.0,9.0,65,0.00,,,0.00,311,Wunderground v.1.15,2013-06-25 23:46:00,
2013-06-25 18:51:00,84.4,71.3,29.44,SE,144,7.0,10.0,65,0.00,,,0.00,246,Wunderground v.1.15,2013-06-25 23:51:00,
2013-06-25 18:56:00,84.2,70.7,29.45,SE,146,2.0,10.0,64,0.00,,,0.00,304,Wunderground v.1.15,2013-06-25 23:56:00,
2013-06-25 19:01:00,84.4,71.8,29.45,SSE,158,6.0,6.0,66,0.00,,,0.00,330,Wunderground v.1.15,2013-06-26 00:01:00,
2013-06-25 19:06:00,84.5,71.0,29.45,South,183,10.0,10.0,64,0.00,,,0.00,355,Wunderground v.1.15,2013-06-26 00:06:00,
2013-06-25 19:11:00,84.3,70.8,29.45,South,173,5.0,6.0,64,0.00,,,0.00,311,Wunderground v.1.15,2013-06-26 00:11:00,
2013-06-25 19:16:00,84.3,71.2,29.45,SE,133,8.0,9.0,65,0.00,,,0.00,287,Wunderground v.1.15,2013-06-26 00:16:00,
2013-06-25 19:21:00,84.1,71.1,29.45,SE,134,2.0,6.0,65,0.00,,,0.00,276,Wunderground v.1.15,2013-06-26 00:21:00,
2013-06-25 19:26:00,84.0,71.0,29.45,SSE,163,6.0,9.0,65,0.00,,,0.00,257,Wunderground v.1.15,2013-06-26 00:26:00,
2013-06-25 19:31:00,83.8,71.7,29.45,SSE,158,7.0,10.0,67,0.00,,,0.00,243,Wunderground v.1.15,2013-06-26 00:31:00,
2013-06-25 19:36:00,83.3,71.2,29.45,SSE,154,7.0,10.0,67,0.00,,,0.00,199,Wunderground v.1.15,2013-06-26 00:36:00,
2013-06-25 19:41:00,83.1,71.4,29.45,South,169,7.0,8.0,68,0.00,,,0.00,202,Wunderground v.1.15,2013-06-26 00:41:00,
2013-06-25 19:46:00,83.0,71.3,29.45,SSE,166,7.0,10.0,68,0.00,,,0.00,156,Wunderground v.1.15,2013-06-26 00:46:00,
2013-06-25 19:51:00,82.7,71.9,29.45,SSE,166,5.0,7.0,70,0.00,,,0.00,72,Wunderground v.1.15,2013-06-26 00:51:00,
2013-06-25 19:56:00,82.1,71.3,29.45,SSE,165,5.0,7.0,70,0.00,,,0.00,120,Wunderground v.1.15,2013-06-26 00:56:00,
2013-06-25 20:01:00,81.8,71.5,29.45,SSE,162,7.0,7.0,71,0.00,,,0.00,63,Wunderground v.1.15,2013-06-26 01:01:00,
2013-06-25 20:06:00,81.7,71.8,29.45,SSE,162,5.0,7.0,72,0.00,,,0.00,60,Wunderground v.1.15,2013-06-26 01:06:00,
2013-06-25 20:11:00,81.6,71.7,29.46,SSE,162,4.0,6.0,72,0.00,,,0.00,54,Wunderground v.1.15,2013-06-26 01:11:00,
2013-06-25 20:16:00,81.4,71.9,29.46,SSE,161,5.0,7.0,73,0.00,,,0.00,51,Wunderground v.1.15,2013-06-26 01:16:00,
2013-06-25 20:21:00,81.1,71.6,29.46,SSE,161,5.0,7.0,73,0.00,,,0.00,46,Wunderground v.1.15,2013-06-26 01:21:00,
2013-06-25 20:26:00,80.9,71.8,29.46,SSE,161,5.0,7.0,74,0.00,,,0.00,39,Wunderground v.1.15,2013-06-26 01:26:00,
2013-06-25 20:31:00,80.5,71.8,29.46,SSE,159,6.0,7.0,75,0.00,,,0.00,35,Wunderground v.1.15,2013-06-26 01:31:00,
2013-06-25 20:36:00,80.1,71.8,29.46,SSE,157,6.0,7.0,76,0.00,,,0.00,23,Wunderground v.1.15,2013-06-26 01:36:00,
2013-06-25 20:41:00,79.6,71.8,29.46,SSE,157,4.0,6.0,77,0.00,,,0.00,25,Wunderground v.1.15,2013-06-26 01:41:00,
2013-06-25 20:46:00,79.2,71.4,29.46,SSE,157,4.0,6.0,77,0.00,,,0.00,23,Wunderground v.1.15,2013-06-26 01:46:00,
2013-06-25 20:51:00,78.8,71.4,29.46,SSE,157,3.0,5.0,78,0.00,,,0.00,19,Wunderground v.1.15,2013-06-26 01:51:00,
2013-06-25 20:56:00,78.5,71.1,29.46,SSE,157,5.0,5.0,78,0.00,,,0.00,18,Wunderground v.1.15,2013-06-26 01:56:00,
2013-06-25 21:01:00,78.0,71.0,29.46,SSE,157,4.0,5.0,79,0.00,,,0.00,12,Wunderground v.1.15,2013-06-26 02:01:00,
2013-06-25 21:06:00,77.5,70.8,29.46,SSE,157,5.0,6.0,80,0.00,,,0.00,7,Wunderground v.1.15,2013-06-26 02:06:00,
2013-06-25 21:11:00,77.1,70.8,29.46,SSE,158,5.0,5.0,81,0.00,,,0.00,5,Wunderground v.1.15,2013-06-26 02:11:00,
2013-06-25 21:16:00,77.0,70.7,29.46,SSE,159,4.0,6.0,81,0.00,,,0.00,5,Wunderground v.1.15,2013-06-26 02:16:00,
2013-06-25 21:21:00,77.0,70.7,29.46,SSE,159,5.0,6.0,81,0.00,,,0.00,0,Wunderground v.1.15,2013-06-26 02:21:00,
2013-06-25 21:26:00,77.1,70.8,29.46,SSE,165,5.0,7.0,81,0.00,,,0.00,0,Wunderground v.1.15,2013-06-26 02:26:00,
2013-06-25 21:31:00,77.2,70.5,29.47,SSE,165,6.0,6.0,80,0.00,,,0.00,0,Wunderground v.1.15,2013-06-26 02:31:00,
2013-06-25 21:36:00,77.3,70.6,29.47,South,176,8.0,9.0,80,0.00,,,0.00,0,Wunderground v.1.15,2013-06-26 02:36:00,
2013-06-25 21:41:00,77.3,70.6,29.47,South,175,8.0,9.0,80,0.00,,,0.00,0,Wunderground v.1.15,2013-06-26 02:41:00,
2013-06-25 21:46:00,77.2,70.5,29.47,South,184,7.0,10.0,80,0.00,,,0.00,0,Wunderground v.1.15,2013-06-26 02:46:00,
2013-06-25 21:51:00,77.1,70.5,29.47,South,183,7.0,9.0,80,0.00,,,0.00,0,Wunderground v.1.15,2013-06-26 02:51:00,
2013-06-25 21:56:00,77.0,70.4,29.47,South,182,8.0,9.0,80,0.00,,,0.00,0,Wunderground v.1.15,2013-06-26 02:56:00,
2013-06-25 22:01:00,76.7,70.4,29.47,South,182,4.0,7.0,81,0.00,,,0.00,0,Wunderground v.1.15,2013-06-26 03:01:00,
2013-06-25 22:06:00,76.4,70.1,29.48,South,182,4.0,7.0,81,0.00,,,0.00,0,Wunderground v.1.15,2013-06-26 03:06:00,
2013-06-25 22:11:00,76.2,70.3,29.48,South,182,3.0,4.0,82,0.00,,,0.00,0,Wunderground v.1.15,2013-06-26 03:11:00,
2013-06-25 22:16:00,76.0,70.1,29.48,South,182,5.0,6.0,82,0.00,,,0.00,0,Wunderground v.1.15,2013-06-26 03:16:00,
2013-06-25 22:21:00,75.6,70.1,29.48,South,182,4.0,4.0,83,0.00,,,0.00,0,Wunderground v.1.15,2013-06-26 03:21:00,
2013-06-25 22:26:00,74.9,69.4,29.48,South,182,4.0,5.0,83,0.00,,,0.00,0,Wunderground v.1.15,2013-06-26 03:26:00,
2013-06-25 22:31:00,74.4,69.2,29.48,South,182,3.0,4.0,84,0.00,,,0.00,0,Wunderground v.1.15,2013-06-26 03:31:00,
2013-06-25 22:36:00,74.3,69.5,29.48,South,182,4.0,4.0,85,0.00,,,0.00,0,Wunderground v.1.15,2013-06-26 03:36:00,
2013-06-25 22:41:00,74.3,69.5,29.48,South,182,4.0,5.0,85,0.00,,,0.00,0,Wunderground v.1.15,2013-06-26 03:41:00,
2013-06-25 22:46:00,74.3,69.5,29.48,South,182,3.0,5.0,85,0.00,,,0.00,0,Wunderground v.1.15,2013-06-26 03:46:00,
2013-06-25 22:51:00,74.3,69.5,29.48,South,182,3.0,4.0,85,0.00,,,0.00,0,Wunderground v.1.15,2013-06-26 03:51:00,
2013-06-25 22:56:00,74.3,69.5,29.48,South,182,3.0,5.0,85,0.00,,,0.00,0,Wunderground v.1.15,2013-06-26 03:56:00,
2013-06-25 23:01:00,74.2,69.4,29.49,South,182,4.0,6.0,85,0.00,,,0.00,0,Wunderground v.1.15,2013-06-26 04:01:00,
2013-06-25 23:06:00,74.1,69.3,29.48,South,182,1.0,6.0,85,0.00,,,0.00,0,Wunderground v.1.15,2013-06-26 04:06:00,
2013-06-25 23:11:00,74.0,69.2,29.48,South,182,3.0,4.0,85,0.00,,,0.00,0,Wunderground v.1.15,2013-06-26 04:11:00,
2013-06-25 23:16:00,73.9,69.1,29.48,South,182,2.0,4.0,85,0.00,,,0.00,0,Wunderground v.1.15,2013-06-26 04:16:00,
2013-06-25 23:21:00,73.6,68.8,29.48,South,182,0.0,3.0,85,0.00,,,0.00,0,Wunderground v.1.15,2013-06-26 04:21:00,
2013-06-25 23:26:00,73.0,68.2,29.48,South,182,3.0,4.0,85,0.00,,,0.00,0,Wunderground v.1.15,2013-06-26 04:26:00,
2013-06-25 23:31:00,72.5,68.1,29.49,South,182,3.0,3.0,86,0.00,,,0.00,0,Wunderground v.1.15,2013-06-26 04:31:00,
2013-06-25 23:36:00,72.3,67.9,29.49,South,182,4.0,5.0,86,0.00,,,0.00,0,Wunderground v.1.15,2013-06-26 04:36:00,
2013-06-25 23:41:00,72.2,67.8,29.49,South,182,2.0,3.0,86,0.00,,,0.00,0,Wunderground v.1.15,2013-06-26 04:41:00,
2013-06-25 23:46:00,72.2,68.1,29.49,South,182,0.0,3.0,87,0.00,,,0.00,0,Wunderground v.1.15,2013-06-26 04:46:00,
2013-06-25 23:51:00,72.0,67.9,29.49,South,182,1.0,2.0,87,0.00,,,0.00,0,Wunderground v.1.15,2013-06-26 04:51:00,
2013-06-25 23:56:00,71.9,67.8,29.50,South,182,0.0,2.0,87,0.00,,,0.00,0,Wunderground v.1.15,2013-06-26 04:56:00,